,,,PA_Meas_PMT16A,,PR_Meas_QMR101_102,,RH_Meas_QMH101,,SR_Meas_QMS101,,TA_Meas_QMH101,,GenWind,,GenWind,
date,time,status,PA,status,PR,status,RH,status,SR,status,TA,status,DirAvg,status,SpdAvg,
2012-02-14, 00:00:05,VALID,1004.83,VALID,0,VALID,87.3202,VALID,0,VALID,24.8113,VALID,286,VALID,0.136328,
2012-02-14, 00:01:05,VALID,1004.8,VALID,0,VALID,87.0608,VALID,0,VALID,24.8327,VALID,286,VALID,0,
2012-02-14, 00:02:05,VALID,1004.77,VALID,0,VALID,87.6024,VALID,0,VALID,24.8113,VALID,286,VALID,0,
2012-02-14, 00:03:05,VALID,1004.78,VALID,0,VALID,87.4346,VALID,0,VALID,24.7919,VALID,286,VALID,0.034375,
2012-02-14, 00:04:05,VALID,1004.79,VALID,0,VALID,87.549,VALID,0.0815089,VALID,24.7919,VALID,286,VALID,0,
2012-02-14, 00:05:05,VALID,1004.8,VALID,0,VALID,87.694,VALID,0,VALID,24.7937,VALID,286,VALID,0,
2012-02-14, 00:06:05,VALID,1004.79,VALID,0,VALID,87.7779,VALID,0,VALID,24.7743,VALID,286,VALID,0.213672,
2012-02-14, 00:07:05,VALID,1004.8,VALID,0,VALID,87.694,VALID,0,VALID,24.7724,VALID,288,VALID,0.380859,
2012-02-14, 00:08:05,VALID,1004.77,VALID,0,VALID,87.8618,VALID,0,VALID,24.7743,VALID,288,VALID,0,
2012-02-14, 00:09:05,VALID,1004.77,VALID,0,VALID,87.8008,VALID,0,VALID,24.7567,VALID,301,VALID,0.345703,
2012-02-14, 00:10:05,VALID,1004.75,VALID,0,VALID,87.9915,VALID,0,VALID,24.714,VALID,311,VALID,0.262109,
2012-02-14, 00:11:05,VALID,1004.71,VALID,0,VALID,88.2738,VALID,0,VALID,24.675,VALID,311,VALID,0.135547,
2012-02-14, 00:12:05,VALID,1004.73,VALID,0,VALID,88.3806,VALID,0,VALID,24.6769,VALID,311,VALID,0.289453,
2012-02-14, 00:13:05,VALID,1004.74,VALID,0,VALID,88.5789,VALID,0,VALID,24.6361,VALID,311,VALID,0.272656,
2012-02-14, 00:14:05,VALID,1004.78,VALID,0,VALID,89.0061,VALID,0,VALID,24.5582,VALID,311,VALID,0.487109,
2012-02-14, 00:15:05,VALID,1004.78,VALID,0,VALID,89.2503,VALID,0,VALID,24.5406,VALID,311,VALID,0.405469,
2012-02-14, 00:16:05,VALID,1004.75,VALID,0,VALID,89.5097,VALID,0,VALID,24.4822,VALID,311,VALID,0.00585938,
2012-02-14, 00:17:05,VALID,1004.71,VALID,0,VALID,89.769,VALID,0,VALID,24.4628,VALID,311,VALID,0.0046875,
2012-02-14, 00:18:05,VALID,1004.66,VALID,0,VALID,89.9674,VALID,0,VALID,24.4043,VALID,311,VALID,0.00585938,
2012-02-14, 00:19:05,VALID,1004.65,VALID,0,VALID,90.3107,VALID,0,VALID,24.3654,VALID,311,VALID,0,
2012-02-14, 00:20:05,VALID,1004.64,VALID,0,VALID,90.242,VALID,0,VALID,24.3459,VALID,311,VALID,0,
2012-02-14, 00:21:05,VALID,1004.63,VALID,0,VALID,90.3259,VALID,0,VALID,24.2662,VALID,311,VALID,0,
2012-02-14, 00:22:05,VALID,1004.62,VALID,0,VALID,90.5243,VALID,0,VALID,24.2681,VALID,311,VALID,0,
2012-02-14, 00:23:05,VALID,1004.6,VALID,0,VALID,90.6998,VALID,0,VALID,24.2486,VALID,311,VALID,0,
2012-02-14, 00:24:05,VALID,1004.6,VALID,0,VALID,91.0125,VALID,0,VALID,24.2273,VALID,311,VALID,0,
2012-02-14, 00:25:05,VALID,1004.55,VALID,0,VALID,91.1117,VALID,0,VALID,24.2097,VALID,311,VALID,0,
2012-02-14, 00:26:05,VALID,1004.54,VALID,0,VALID,90.982,VALID,0,VALID,24.1671,VALID,311,VALID,0.262109,
2012-02-14, 00:27:05,VALID,1004.54,VALID,0,VALID,90.9286,VALID,0,VALID,24.1689,VALID,311,VALID,0.134375,
2012-02-14, 00:28:05,VALID,1004.52,VALID,0,VALID,91.0888,VALID,0.0815089,VALID,24.1494,VALID,311,VALID,0.0132813,
2012-02-14, 00:29:05,VALID,1004.51,VALID,0,VALID,91.0659,VALID,0.0815089,VALID,24.1707,VALID,311,VALID,0.0609375,
2012-02-14, 00:30:05,VALID,1004.51,VALID,0,VALID,91.0583,VALID,0,VALID,24.13,VALID,311,VALID,0.181641,
2012-02-14, 00:31:05,VALID,1004.51,VALID,0,VALID,91.1804,VALID,0.0815089,VALID,24.1494,VALID,311,VALID,0,
2012-02-14, 00:32:05,VALID,1004.51,VALID,0,VALID,91.1804,VALID,0,VALID,24.1494,VALID,311,VALID,0.00234375,
2012-02-14, 00:33:05,VALID,1004.49,VALID,0,VALID,91.2414,VALID,0,VALID,24.13,VALID,311,VALID,0,
2012-02-14, 00:34:05,VALID,1004.47,VALID,0,VALID,91.2109,VALID,0.0815089,VALID,24.1105,VALID,311,VALID,0,
2012-02-14, 00:35:05,VALID,1004.46,VALID,0,VALID,91.188,VALID,0.0815089,VALID,24.13,VALID,311,VALID,0,
2012-02-14, 00:36:05,VALID,1004.46,VALID,0,VALID,91.0965,VALID,0.0815089,VALID,24.1105,VALID,311,VALID,0,
2012-02-14, 00:37:05,VALID,1004.46,VALID,0,VALID,91.0431,VALID,0.0815089,VALID,24.1105,VALID,311,VALID,0,
2012-02-14, 00:38:05,VALID,1004.43,VALID,0,VALID,91.0431,VALID,0,VALID,24.1105,VALID,311,VALID,0.228516,
2012-02-14, 00:39:05,VALID,1004.45,VALID,0,VALID,90.9897,VALID,0,VALID,24.1318,VALID,310,VALID,0.0855469,
2012-02-14, 00:40:05,VALID,1004.41,VALID,0,VALID,90.7989,VALID,0.0815089,VALID,24.1494,VALID,310,VALID,0.283203,
2012-02-14, 00:41:05,VALID,1004.41,VALID,0,VALID,90.8295,VALID,0.0815089,VALID,24.1689,VALID,310,VALID,0,
2012-02-14, 00:42:05,VALID,1004.42,VALID,0,VALID,90.7608,VALID,0.0815089,VALID,24.1884,VALID,310,VALID,0,
2012-02-14, 00:43:05,VALID,1004.41,VALID,0,VALID,90.7226,VALID,0.0815089,VALID,24.2273,VALID,310,VALID,0.130469,
2012-02-14, 00:44:05,VALID,1004.35,VALID,0,VALID,90.6387,VALID,0.0815089,VALID,24.2468,VALID,310,VALID,0,
2012-02-14, 00:45:05,VALID,1004.36,VALID,0,VALID,90.6006,VALID,0.0815089,VALID,24.2273,VALID,310,VALID,0,
2012-02-14, 00:46:05,VALID,1004.31,VALID,0,VALID,90.4862,VALID,0.0815089,VALID,24.2273,VALID,310,VALID,0,
2012-02-14, 00:47:05,VALID,1004.29,VALID,0,VALID,90.8066,VALID,0.0815089,VALID,24.2468,VALID,310,VALID,0.152734,
2012-02-14, 00:48:05,VALID,1004.32,VALID,0,VALID,90.6998,VALID,0.0815089,VALID,24.2662,VALID,310,VALID,0,
2012-02-14, 00:49:05,VALID,1004.28,VALID,0,VALID,90.715,VALID,0,VALID,24.2857,VALID,310,VALID,0.00429688,
2012-02-14, 00:50:05,VALID,1004.29,VALID,0,VALID,90.6921,VALID,0,VALID,24.2857,VALID,310,VALID,0,
2012-02-14, 00:51:05,VALID,1004.24,VALID,0,VALID,90.715,VALID,0.0815089,VALID,24.3052,VALID,310,VALID,0,
2012-02-14, 00:52:05,VALID,1004.22,VALID,0,VALID,90.5624,VALID,0,VALID,24.3052,VALID,310,VALID,0,
2012-02-14, 00:53:05,VALID,1004.21,VALID,0,VALID,90.448,VALID,0.0815089,VALID,24.3052,VALID,310,VALID,0,
2012-02-14, 00:54:05,VALID,1004.22,VALID,0,VALID,90.3565,VALID,0,VALID,24.307,VALID,310,VALID,0,
2012-02-14, 00:55:05,VALID,1004.16,VALID,0,VALID,90.2878,VALID,0,VALID,24.307,VALID,310,VALID,0,
2012-02-14, 00:56:05,VALID,1004.14,VALID,0,VALID,90.2115,VALID,0,VALID,24.3265,VALID,310,VALID,0,
2012-02-14, 00:57:05,VALID,1004.17,VALID,0,VALID,90.1734,VALID,0,VALID,24.3265,VALID,310,VALID,0,
2012-02-14, 00:58:05,VALID,1004.19,VALID,0,VALID,90.1581,VALID,0,VALID,24.3459,VALID,310,VALID,0,
2012-02-14, 00:59:05,VALID,1004.2,VALID,0,VALID,90.2191,VALID,0,VALID,24.3654,VALID,310,VALID,0,
2012-02-14, 01:00:05,VALID,1004.19,VALID,0,VALID,89.9521,VALID,0,VALID,24.3654,VALID,310,VALID,0,
2012-02-14, 01:01:05,VALID,1004.2,VALID,0,VALID,89.8606,VALID,0,VALID,24.3459,VALID,310,VALID,0.144922,
2012-02-14, 01:02:05,VALID,1004.19,VALID,0,VALID,89.7843,VALID,0,VALID,24.3459,VALID,310,VALID,0,
2012-02-14, 01:03:05,VALID,1004.14,VALID,0,VALID,89.6775,VALID,0,VALID,24.3459,VALID,310,VALID,0,
2012-02-14, 01:04:05,VALID,1004.14,VALID,0,VALID,89.7538,VALID,0,VALID,24.3459,VALID,310,VALID,0.132813,
2012-02-14, 01:05:05,VALID,1004.17,VALID,0,VALID,89.853,VALID,0,VALID,24.3459,VALID,310,VALID,0.000390625,
2012-02-14, 01:06:05,VALID,1004.15,VALID,0,VALID,89.853,VALID,0,VALID,24.3459,VALID,310,VALID,0,
2012-02-14, 01:07:05,VALID,1004.13,VALID,0,VALID,89.9903,VALID,0,VALID,24.3265,VALID,310,VALID,0.236328,
2012-02-14, 01:08:05,VALID,1004.13,VALID,0,VALID,89.8682,VALID,0,VALID,24.3265,VALID,310,VALID,0.293359,
2012-02-14, 01:09:05,VALID,1004.1,VALID,0,VALID,89.8911,VALID,0.0815089,VALID,24.3246,VALID,310,VALID,0,
2012-02-14, 01:10:05,VALID,1004.09,VALID,0,VALID,89.7156,VALID,0,VALID,24.2839,VALID,251,VALID,0.41875,
2012-02-14, 01:11:05,VALID,1004.11,VALID,0,VALID,89.6012,VALID,0,VALID,24.3052,VALID,236,VALID,0.715234,
2012-02-14, 01:12:05,VALID,1004.12,VALID,0,VALID,89.647,VALID,0.0815089,VALID,24.3052,VALID,236,VALID,0.392969,
2012-02-14, 01:13:05,VALID,1004.1,VALID,0,VALID,89.5783,VALID,0.0815089,VALID,24.3052,VALID,236,VALID,0.603906,
2012-02-14, 01:14:05,VALID,1004.09,VALID,0,VALID,89.4791,VALID,0,VALID,24.3052,VALID,236,VALID,0.375,
2012-02-14, 01:15:05,VALID,1004.11,VALID,0,VALID,89.5859,VALID,0,VALID,24.3052,VALID,236,VALID,0,
2012-02-14, 01:16:04,VALID,1004.11,VALID,0,VALID,89.5936,VALID,0.0815089,VALID,24.3052,VALID,236,VALID,0.105469,
2012-02-14, 01:17:04,VALID,1004.08,VALID,0,VALID,89.6546,VALID,0.0815089,VALID,24.3246,VALID,236,VALID,0.233203,
2012-02-14, 01:18:04,VALID,1004.03,VALID,0,VALID,89.6546,VALID,0,VALID,24.2839,VALID,236,VALID,0.101563,
2012-02-14, 01:19:04,VALID,1004.02,VALID,0,VALID,89.647,VALID,0,VALID,24.3246,VALID,236,VALID,0.221875,
2012-02-14, 01:20:04,VALID,1004.01,VALID,0,VALID,89.8224,VALID,0.0815089,VALID,24.3246,VALID,236,VALID,0,
2012-02-14, 01:21:04,VALID,1004.03,VALID,0,VALID,89.9216,VALID,0,VALID,24.3459,VALID,236,VALID,0,
2012-02-14, 01:22:04,VALID,1004.02,VALID,0,VALID,90.0818,VALID,0,VALID,24.3052,VALID,236,VALID,0,
2012-02-14, 01:23:04,VALID,1004,VALID,0,VALID,90.1886,VALID,0.0815089,VALID,24.2857,VALID,236,VALID,0,
2012-02-14, 01:24:04,VALID,1004.02,VALID,0,VALID,90.2573,VALID,0.0815089,VALID,24.2273,VALID,236,VALID,0,
2012-02-14, 01:25:04,VALID,1004.04,VALID,0,VALID,90.4404,VALID,0.0815089,VALID,24.1689,VALID,236,VALID,0,
2012-02-14, 01:26:04,VALID,1004.02,VALID,0,VALID,90.6311,VALID,0.0815089,VALID,24.1281,VALID,236,VALID,0,
2012-02-14, 01:27:04,VALID,1004.02,VALID,0,VALID,90.8142,VALID,0.0815089,VALID,24.13,VALID,236,VALID,0,
2012-02-14, 01:28:04,VALID,1004.01,VALID,0,VALID,90.9515,VALID,0.0815089,VALID,24.0716,VALID,236,VALID,0,
2012-02-14, 01:29:04,VALID,1004.01,VALID,0,VALID,91.1193,VALID,0.0815089,VALID,24.0716,VALID,236,VALID,0,
2012-02-14, 01:30:04,VALID,1003.99,VALID,0,VALID,91.2185,VALID,0.0815089,VALID,24.0521,VALID,236,VALID,0,
2012-02-14, 01:31:04,VALID,1003.97,VALID,0,VALID,91.4321,VALID,0.0815089,VALID,24.0326,VALID,236,VALID,0,
2012-02-14, 01:32:04,VALID,1003.95,VALID,0,VALID,91.5466,VALID,0.0815089,VALID,24.0132,VALID,236,VALID,0,
2012-02-14, 01:33:04,VALID,1003.93,VALID,0,VALID,91.661,VALID,0.0815089,VALID,24.0132,VALID,236,VALID,0,
2012-02-14, 01:34:04,VALID,1003.93,VALID,0,VALID,91.7449,VALID,0.0815089,VALID,23.9724,VALID,236,VALID,0,
2012-02-14, 01:35:04,VALID,1003.91,VALID,0,VALID,91.867,VALID,0.0815089,VALID,24.0132,VALID,236,VALID,0,
2012-02-14, 01:36:04,VALID,1003.9,VALID,0,VALID,91.928,VALID,0.0815089,VALID,24.0132,VALID,236,VALID,0,
2012-02-14, 01:37:04,VALID,1003.89,VALID,0,VALID,92.073,VALID,0.0815089,VALID,24.0132,VALID,236,VALID,0,
2012-02-14, 01:38:04,VALID,1003.92,VALID,0,VALID,91.9356,VALID,0.0815089,VALID,24.0521,VALID,285,VALID,0.928516,
2012-02-14, 01:39:04,VALID,1003.92,VALID,0,VALID,91.8899,VALID,0.0815089,VALID,24.0521,VALID,288,VALID,0.633594,
2012-02-14, 01:40:04,VALID,1003.96,VALID,0,VALID,91.6839,VALID,0.0815089,VALID,24.091,VALID,288,VALID,0.678516,
2012-02-14, 01:41:04,VALID,1003.91,VALID,0,VALID,91.455,VALID,0,VALID,24.1105,VALID,290,VALID,0.370313,
2012-02-14, 01:42:04,VALID,1003.95,VALID,0,VALID,91.4398,VALID,0.0815089,VALID,24.1494,VALID,290,VALID,0.090625,
2012-02-14, 01:43:04,VALID,1003.95,VALID,0,VALID,91.2948,VALID,0.0815089,VALID,24.1689,VALID,290,VALID,0.0421875,
2012-02-14, 01:44:04,VALID,1003.95,VALID,0,VALID,91.1117,VALID,0.0815089,VALID,24.1884,VALID,290,VALID,0.307031,
2012-02-14, 01:45:04,VALID,1003.97,VALID,0,VALID,91.0965,VALID,0.0815089,VALID,24.2273,VALID,301,VALID,0.410156,
2012-02-14, 01:46:04,VALID,1003.95,VALID,0,VALID,91.0812,VALID,0.0815089,VALID,24.2255,VALID,301,VALID,0.413281,
2012-02-14, 01:47:04,VALID,1003.97,VALID,0,VALID,91.0278,VALID,0.0815089,VALID,24.206,VALID,301,VALID,0.334375,
2012-02-14, 01:48:04,VALID,1003.97,VALID,0,VALID,91.1651,VALID,0.0815089,VALID,24.2273,VALID,301,VALID,0.164063,
2012-02-14, 01:49:04,VALID,1003.99,VALID,0,VALID,90.9515,VALID,0.0815089,VALID,24.2078,VALID,301,VALID,0.0773437,
2012-02-14, 01:50:04,VALID,1004.01,VALID,0,VALID,90.9515,VALID,0.0815089,VALID,24.1884,VALID,301,VALID,0,
2012-02-14, 01:51:04,VALID,1003.99,VALID,0,VALID,90.9515,VALID,0.0815089,VALID,24.2078,VALID,301,VALID,0.04375,
2012-02-14, 01:52:04,VALID,1004.01,VALID,0,VALID,91.0431,VALID,0.0815089,VALID,24.206,VALID,300,VALID,0.0222656,
2012-02-14, 01:53:04,VALID,1004.01,VALID,0,VALID,90.9973,VALID,0.0815089,VALID,24.206,VALID,300,VALID,0.279687,
2012-02-14, 01:54:04,VALID,1004,VALID,0,VALID,90.9134,VALID,0,VALID,24.2273,VALID,300,VALID,0.0191406,
2012-02-14, 01:55:04,VALID,1004,VALID,0,VALID,90.9286,VALID,0.0815089,VALID,24.2255,VALID,300,VALID,0.0316406,
2012-02-14, 01:56:04,VALID,1003.97,VALID,0,VALID,90.8066,VALID,0.0815089,VALID,24.2662,VALID,301,VALID,0.00351562,
2012-02-14, 01:57:04,VALID,1003.94,VALID,0,VALID,90.8066,VALID,0.0815089,VALID,24.2857,VALID,301,VALID,0.0664063,
2012-02-14, 01:58:04,VALID,1003.94,VALID,0,VALID,90.6006,VALID,0,VALID,24.2857,VALID,301,VALID,0.315625,
2012-02-14, 01:59:04,VALID,1003.91,VALID,0,VALID,90.6235,VALID,0.0815089,VALID,24.2644,VALID,301,VALID,0.167578,
2012-02-14, 02:00:04,VALID,1003.89,VALID,0,VALID,90.7455,VALID,0.0815089,VALID,24.3052,VALID,301,VALID,0,
2012-02-14, 02:01:04,VALID,1003.87,VALID,0,VALID,90.7684,VALID,0.0815089,VALID,24.3265,VALID,301,VALID,0,
2012-02-14, 02:02:04,VALID,1003.88,VALID,0,VALID,90.7226,VALID,0.0815089,VALID,24.2857,VALID,311,VALID,0.0964844,
2012-02-14, 02:03:04,VALID,1003.87,VALID,0,VALID,90.6692,VALID,0.0815089,VALID,24.307,VALID,326,VALID,0.301562,
2012-02-14, 02:04:04,VALID,1003.89,VALID,0,VALID,90.6464,VALID,0.0815089,VALID,24.2857,VALID,329,VALID,0.344141,
2012-02-14, 02:05:04,VALID,1003.9,VALID,0,VALID,90.6769,VALID,0,VALID,24.3265,VALID,331,VALID,0.0855469,
2012-02-14, 02:06:04,VALID,1003.9,VALID,0,VALID,90.6692,VALID,0.0815089,VALID,24.3246,VALID,331,VALID,0,
2012-02-14, 02:07:04,VALID,1003.89,VALID,0,VALID,90.715,VALID,0.0815089,VALID,24.3441,VALID,331,VALID,0,
2012-02-14, 02:08:04,VALID,1003.91,VALID,0,VALID,90.3412,VALID,0,VALID,24.3422,VALID,315,VALID,0.183594,
2012-02-14, 02:09:04,VALID,1003.87,VALID,0,VALID,89.9598,VALID,0,VALID,24.4043,VALID,263,VALID,0.665234,
2012-02-14, 02:10:04,VALID,1003.87,VALID,0,VALID,89.6851,VALID,0,VALID,24.4043,VALID,268,VALID,0.266406,
2012-02-14, 02:11:04,VALID,1003.83,VALID,0,VALID,89.4944,VALID,0,VALID,24.4433,VALID,270,VALID,0.360156,
2012-02-14, 02:12:04,VALID,1003.79,VALID,0,VALID,89.296,VALID,0,VALID,24.4822,VALID,290,VALID,0.396875,
2012-02-14, 02:13:04,VALID,1003.77,VALID,0,VALID,89.0901,VALID,0,VALID,24.5017,VALID,292,VALID,0.475781,
2012-02-14, 02:14:04,VALID,1003.72,VALID,0,VALID,88.9985,VALID,0,VALID,24.5406,VALID,292,VALID,0.084375,
2012-02-14, 02:15:04,VALID,1003.69,VALID,0,VALID,88.8765,VALID,0,VALID,24.5601,VALID,292,VALID,0.110156,
2012-02-14, 02:16:04,VALID,1003.65,VALID,0,VALID,88.8612,VALID,0,VALID,24.5796,VALID,292,VALID,0.0078125,
2012-02-14, 02:17:04,VALID,1003.62,VALID,0,VALID,88.6018,VALID,0,VALID,24.5777,VALID,290,VALID,0.775781,
2012-02-14, 02:18:04,VALID,1003.62,VALID,0,VALID,88.5713,VALID,0,VALID,24.6185,VALID,271,VALID,0.524219,
2012-02-14, 02:19:04,VALID,1003.61,VALID,0,VALID,88.3729,VALID,0,VALID,24.6166,VALID,312,VALID,0.408594,
2012-02-14, 02:20:04,VALID,1003.59,VALID,0,VALID,88.289,VALID,0,VALID,24.6166,VALID,281,VALID,0.245703,
2012-02-14, 02:21:04,VALID,1003.61,VALID,0,VALID,88.1517,VALID,0,VALID,24.6361,VALID,281,VALID,0,
2012-02-14, 02:22:04,VALID,1003.6,VALID,0,VALID,88.2433,VALID,0,VALID,24.6574,VALID,281,VALID,0,
2012-02-14, 02:23:04,VALID,1003.6,VALID,0,VALID,88.2585,VALID,0,VALID,24.6769,VALID,281,VALID,0,
2012-02-14, 02:24:04,VALID,1003.57,VALID,0,VALID,88.228,VALID,0,VALID,24.6769,VALID,281,VALID,0.00351562,
2012-02-14, 02:25:04,VALID,1003.57,VALID,0,VALID,88.1822,VALID,0,VALID,24.6574,VALID,282,VALID,0.165234,
2012-02-14, 02:26:04,VALID,1003.54,VALID,0,VALID,87.8694,VALID,0,VALID,24.6769,VALID,290,VALID,0.394141,
2012-02-14, 02:27:04,VALID,1003.52,VALID,0,VALID,87.6787,VALID,0,VALID,24.6964,VALID,295,VALID,0.454688,
2012-02-14, 02:28:04,VALID,1003.52,VALID,0,VALID,87.6711,VALID,0,VALID,24.6945,VALID,294,VALID,0.573828,
2012-02-14, 02:29:04,VALID,1003.51,VALID,0,VALID,87.6482,VALID,0,VALID,24.7159,VALID,293,VALID,0.15625,
2012-02-14, 02:30:04,VALID,1003.51,VALID,0,VALID,87.4651,VALID,0,VALID,24.714,VALID,293,VALID,0.046875,
2012-02-14, 02:31:04,VALID,1003.5,VALID,0,VALID,87.4651,VALID,0,VALID,24.7335,VALID,293,VALID,0.0453125,
2012-02-14, 02:32:04,VALID,1003.53,VALID,0,VALID,87.0303,VALID,0,VALID,24.7548,VALID,289,VALID,0.196094,
2012-02-14, 02:33:04,VALID,1003.51,VALID,0,VALID,87.015,VALID,0,VALID,24.7529,VALID,238,VALID,0.453125,
2012-02-14, 02:34:04,VALID,1003.5,VALID,0,VALID,87.0379,VALID,0,VALID,24.7937,VALID,238,VALID,0.395703,
2012-02-14, 02:35:04,VALID,1003.52,VALID,0,VALID,86.7633,VALID,0,VALID,24.8132,VALID,305,VALID,0.762891,
2012-02-14, 02:36:04,VALID,1003.5,VALID,0,VALID,86.214,VALID,0,VALID,24.8113,VALID,291,VALID,1.14375,
2012-02-14, 02:37:04,VALID,1003.52,VALID,0,VALID,86.4428,VALID,0,VALID,24.8911,VALID,300,VALID,0.129297,
2012-02-14, 02:38:04,VALID,1003.52,VALID,0,VALID,86.6412,VALID,0,VALID,24.8911,VALID,300,VALID,0.176563,
2012-02-14, 02:39:04,VALID,1003.54,VALID,0,VALID,86.4047,VALID,0,VALID,24.8911,VALID,300,VALID,0,
2012-02-14, 02:40:04,VALID,1003.55,VALID,0,VALID,86.336,VALID,0,VALID,24.8911,VALID,300,VALID,0.310937,
2012-02-14, 02:41:04,VALID,1003.59,VALID,0,VALID,86.3818,VALID,0,VALID,24.8716,VALID,298,VALID,0.346875,
2012-02-14, 02:42:04,VALID,1003.63,VALID,0,VALID,86.3666,VALID,0,VALID,24.8503,VALID,293,VALID,0.195313,
2012-02-14, 02:43:04,VALID,1003.64,VALID,0,VALID,86.7251,VALID,0,VALID,24.8911,VALID,293,VALID,0.171484,
2012-02-14, 02:44:04,VALID,1003.64,VALID,0,VALID,86.3666,VALID,0,VALID,24.8716,VALID,289,VALID,0.801172,
2012-02-14, 02:45:04,VALID,1003.66,VALID,0,VALID,86.2521,VALID,0,VALID,24.8503,VALID,273,VALID,0.326953,
2012-02-14, 02:46:04,VALID,1003.67,VALID,0,VALID,86.2826,VALID,0,VALID,24.9125,VALID,274,VALID,0.38125,
2012-02-14, 02:47:04,VALID,1003.66,VALID,0,VALID,86.0309,VALID,0,VALID,24.8716,VALID,334,VALID,0.562109,
2012-02-14, 02:48:04,VALID,1003.64,VALID,0,VALID,85.9699,VALID,0,VALID,24.8716,VALID,333,VALID,0.233594,
2012-02-14, 02:49:04,VALID,1003.64,VALID,0,VALID,86.1758,VALID,0,VALID,24.8716,VALID,333,VALID,0.225391,
2012-02-14, 02:50:04,VALID,1003.64,VALID,0,VALID,86.1606,VALID,0,VALID,24.8716,VALID,333,VALID,0,
2012-02-14, 02:51:04,VALID,1003.59,VALID,0,VALID,86.2064,VALID,0,VALID,24.8716,VALID,333,VALID,0.298828,
2012-02-14, 02:52:04,VALID,1003.59,VALID,0,VALID,86.1453,VALID,0,VALID,24.8911,VALID,316,VALID,0.474609,
2012-02-14, 02:53:04,VALID,1003.59,VALID,0,VALID,86.0767,VALID,0,VALID,24.8716,VALID,263,VALID,0.370703,
2012-02-14, 02:54:04,VALID,1003.57,VALID,0,VALID,85.8707,VALID,0,VALID,24.893,VALID,265,VALID,0.484766,
2012-02-14, 02:55:04,VALID,1003.54,VALID,0,VALID,85.8631,VALID,0,VALID,24.8911,VALID,316,VALID,0.782812,
2012-02-14, 02:56:04,VALID,1003.55,VALID,0,VALID,85.8096,VALID,0,VALID,24.8911,VALID,282,VALID,0.735156,
2012-02-14, 02:57:04,VALID,1003.55,VALID,0,VALID,85.9622,VALID,0,VALID,24.9106,VALID,291,VALID,0.110937,
2012-02-14, 02:58:04,VALID,1003.55,VALID,0,VALID,85.8096,VALID,0,VALID,24.9125,VALID,327,VALID,0.636719,
2012-02-14, 02:59:04,VALID,1003.52,VALID,0,VALID,85.68,VALID,0,VALID,24.9106,VALID,301,VALID,0.735937,
2012-02-14, 03:00:04,VALID,1003.52,VALID,0,VALID,85.7944,VALID,0,VALID,24.8892,VALID,334,VALID,0,
2012-02-14, 03:01:04,VALID,1003.48,VALID,0,VALID,85.6571,VALID,0,VALID,24.9106,VALID,277,VALID,1.05391,
2012-02-14, 03:02:04,VALID,1003.48,VALID,0,VALID,85.7562,VALID,0,VALID,24.8911,VALID,274,VALID,0.379687,
2012-02-14, 03:03:04,VALID,1003.42,VALID,0,VALID,85.7639,VALID,0,VALID,24.9106,VALID,281,VALID,0.198437,
2012-02-14, 03:04:04,VALID,1003.41,VALID,0,VALID,85.7028,VALID,0,VALID,24.8911,VALID,301,VALID,0.855859,
2012-02-14, 03:05:04,VALID,1003.38,VALID,0,VALID,85.7868,VALID,0,VALID,24.8911,VALID,293,VALID,0.238672,
2012-02-14, 03:06:04,VALID,1003.34,VALID,0,VALID,85.68,VALID,0,VALID,24.8716,VALID,273,VALID,0.578516,
2012-02-14, 03:07:04,VALID,1003.34,VALID,0,VALID,85.7181,VALID,0,VALID,24.8911,VALID,303,VALID,0.500781,
2012-02-14, 03:08:04,VALID,1003.36,VALID,0,VALID,85.7791,VALID,0,VALID,24.8716,VALID,295,VALID,0.363281,
2012-02-14, 03:09:04,VALID,1003.36,VALID,0,VALID,85.7791,VALID,0,VALID,24.8892,VALID,304,VALID,0.978125,
2012-02-14, 03:10:04,VALID,1003.39,VALID,0,VALID,85.8249,VALID,0,VALID,24.8716,VALID,311,VALID,0.600391,
2012-02-14, 03:11:04,VALID,1003.39,VALID,0,VALID,85.9012,VALID,0,VALID,24.8503,VALID,276,VALID,0.637891,
2012-02-14, 03:12:04,VALID,1003.38,VALID,0,VALID,85.6571,VALID,0,VALID,24.8697,VALID,281,VALID,1.14453,
2012-02-14, 03:13:04,VALID,1003.36,VALID,0,VALID,85.5198,VALID,0,VALID,24.8308,VALID,286,VALID,0.8,
2012-02-14, 03:14:04,VALID,1003.36,VALID,0,VALID,85.5732,VALID,0,VALID,24.8503,VALID,304,VALID,0.536719,
2012-02-14, 03:15:04,VALID,1003.37,VALID,0,VALID,85.8859,VALID,0,VALID,24.8911,VALID,304,VALID,0,
2012-02-14, 03:16:04,VALID,1003.34,VALID,0,VALID,85.9393,VALID,0,VALID,24.9106,VALID,289,VALID,0.679297,
2012-02-14, 03:17:04,VALID,1003.35,VALID,0,VALID,85.9851,VALID,0,VALID,24.8716,VALID,274,VALID,0.123828,
2012-02-14, 03:18:04,VALID,1003.36,VALID,0,VALID,85.9775,VALID,0.0815089,VALID,24.8716,VALID,293,VALID,0.478906,
2012-02-14, 03:19:04,VALID,1003.36,VALID,0,VALID,85.5808,VALID,0,VALID,24.8503,VALID,272,VALID,0.85625,
2012-02-14, 03:20:04,VALID,1003.38,VALID,0,VALID,85.8936,VALID,0,VALID,24.8503,VALID,292,VALID,0.232422,
2012-02-14, 03:21:04,VALID,1003.35,VALID,0,VALID,85.8325,VALID,0,VALID,24.8716,VALID,292,VALID,0.658984,
2012-02-14, 03:22:04,VALID,1003.38,VALID,0,VALID,85.6266,VALID,0,VALID,24.8503,VALID,283,VALID,0.662891,
2012-02-14, 03:23:04,VALID,1003.42,VALID,0,VALID,85.2909,VALID,0,VALID,24.8522,VALID,290,VALID,1.23398,
2012-02-14, 03:24:04,VALID,1003.4,VALID,0,VALID,85.3519,VALID,0,VALID,24.8911,VALID,271,VALID,0.628125,
2012-02-14, 03:25:04,VALID,1003.44,VALID,0,VALID,85.5274,VALID,0,VALID,24.9087,VALID,269,VALID,0.436719,
2012-02-14, 03:26:04,VALID,1003.48,VALID,0,VALID,85.6189,VALID,0,VALID,24.9087,VALID,282,VALID,0.469141,
2012-02-14, 03:27:04,VALID,1003.5,VALID,0,VALID,85.4816,VALID,0,VALID,24.9282,VALID,242,VALID,1.17148,
2012-02-14, 03:28:04,VALID,1003.52,VALID,0,VALID,85.4358,VALID,0,VALID,24.9282,VALID,262,VALID,0.961328,
2012-02-14, 03:29:04,VALID,1003.51,VALID,0,VALID,86.2903,VALID,0.0815089,VALID,24.9263,VALID,283,VALID,3.54727,
2012-02-14, 03:30:04,VALID,1003.42,VALID,0,VALID,86.542,VALID,0,VALID,24.9866,VALID,247,VALID,2.68711,
2012-02-14, 03:31:04,VALID,1003.46,VALID,0,VALID,86.5954,VALID,0,VALID,25.0255,VALID,254,VALID,2.67656,
2012-02-14, 03:32:04,VALID,1003.48,VALID,0,VALID,86.2521,VALID,0,VALID,25.0663,VALID,296,VALID,3.07539,
2012-02-14, 03:33:04,VALID,1003.49,VALID,0,VALID,86.9006,VALID,0,VALID,25.0858,VALID,264,VALID,1.93555,
2012-02-14, 03:34:04,VALID,1003.45,VALID,0,VALID,86.8853,VALID,0,VALID,25.0839,VALID,284,VALID,1.125,
2012-02-14, 03:35:04,VALID,1003.44,VALID,0,VALID,87.1371,VALID,0,VALID,25.1248,VALID,271,VALID,2.48672,
2012-02-14, 03:36:04,VALID,1003.45,VALID,0,VALID,87.3888,VALID,0,VALID,25.1248,VALID,235,VALID,2.27187,
2012-02-14, 03:37:04,VALID,1003.44,VALID,0,VALID,87.2668,VALID,0,VALID,25.1248,VALID,275,VALID,1.06992,
2012-02-14, 03:38:04,VALID,1003.42,VALID,0,VALID,86.4047,VALID,0,VALID,25.0644,VALID,276,VALID,3.69336,
2012-02-14, 03:39:04,VALID,1003.41,VALID,0,VALID,86.1072,VALID,0,VALID,25.0858,VALID,277,VALID,2.58828,
2012-02-14, 03:40:04,VALID,1003.51,VALID,0,VALID,86.275,VALID,0,VALID,25.0858,VALID,242,VALID,1.93008,
2012-02-14, 03:41:04,VALID,1003.53,VALID,0,VALID,85.9241,VALID,0,VALID,25.045,VALID,266,VALID,2.96016,
2012-02-14, 03:42:04,VALID,1003.6,VALID,0,VALID,86.0461,VALID,0,VALID,25.0839,VALID,283,VALID,2.23672,
2012-02-14, 03:43:04,VALID,1003.68,VALID,0,VALID,86.1377,VALID,0,VALID,25.1053,VALID,255,VALID,0.967969,